Regional Weather Roundup
Issued by NWS Upton, NY

Current Version | Previous Version | Text Only | Print | Product List | Glossary Off
Versions: 1 2 3 4 5 6 7 8 9 10 11 12 13 14 15 16 17 18 19 20 21 22 23 24 25 26 27 28 29 30 31 32 33 34 35 36 37 38 39 40 41 42 43 44 45 46 47 48 49 50
000 ASUS41 KOKX 061808 RWROKX REGIONAL WEATHER ROUNDUP NATIONAL WEATHER SERVICE NEW YORK NY 200 PM EDT MON JUL 06 2015 NOTE: "FAIR" INDICATES FEW OR NO CLOUDS BELOW 12,000 FEET WITH NO SIGNIFICANT WEATHER AND/OR OBSTRUCTIONS TO VISIBILITY. NYZ071-072-176-178-NJZ106-104-061900- NEW YORK CITY METRO AREA CITY SKY/WX TMP DP RH WIND PRES REMARKS CENTRAL PARK PTSUNNY 83 64 52 VRB5 30.18F LAGUARDIA APRT PTSUNNY 82 62 50 S10 30.15S KENNEDY INTL PTSUNNY 82 66 58 SE9 30.17F NEWARK/LIBERTY CLOUDY 81 66 60 E8 30.14F BRNX BOT. GARD N/A 79 61 53 SE8 30.18R TETERBORO PTSUNNY 82 63 52 S9 30.13F $$ NYZ177-179-078>081-061900- LONG ISLAND NEW YORK CITY SKY/WX TMP DP RH WIND PRES REMARKS FARMINGDALE PTSUNNY 78 65 63 S8 30.17S ISLIP CLOUDY 78 65 63 S8 30.16S SHIRLEY CLOUDY 78 66 66 S9 30.18S WESTHAMPTON PTSUNNY 79 66 64 S8 30.19S MONTAUK POINT N/A 78 68 71 VRB5 30.20S $$ NYZ052-065-067-061900- HUDSON VALLEY CITY SKY/WX TMP DP RH WIND PRES REMARKS WHITE PLAINS PTSUNNY 80 63 55 S7 30.17S NEWBURGH PTSUNNY 79 68 69 VRB6 30.17F MONTGOMERY PTSUNNY 81 69 67 SW7 30.14F POUGHKEEPSIE MOSUNNY 83 66 56 S8 30.13F ALBANY MOSUNNY 83 59 44 VRB3 30.15F $$ NJZ001-105-106-008-010-013-015-019>022-104-061900- NEW JERSEY CITY SKY/WX TMP DP RH WIND PRES REMARKS NEWARK/LIBERTY CLOUDY 81 66 60 E8 30.14F TETERBORO PTSUNNY 82 63 52 S9 30.13F CALDWELL PTSUNNY 82 66 58 SE6 30.14F MORRISTOWN CLOUDY 86 68 54 S8 30.14F SOMERVILLE PTSUNNY 84 68 58 SE8 30.11F SUSSEX CLOUDY 80 66 62 VRB3 30.15F ANDOVER N/A 82 68 62 CALM 30.16F TRENTON PTSUNNY 82 69 64 S9 30.12F MILLVILLE PTSUNNY 83 70 64 VRB6 30.12F ATLANTIC CITY CLOUDY 80 72 76 SE8 30.14F WRIGHTSTOWN CLOUDY 81 73 74 VRB5 30.10F TOMS RIVER CLOUDY 81 70 69 SE7 30.14F BELMAR CLOUDY 79 66 65 S8 30.15F $$ PAZ047>061-062-071-061900- EASTERN PENNSYLVANIA CITY SKY/WX TMP DP RH WIND PRES REMARKS PHILADELPHIA PTSUNNY 84 70 62 S7 30.11F ALLENTOWN PTSUNNY 83 66 56 CALM 30.13F SCRANTON CLOUDY 80 63 55 S6 30.14F $$ CTZ002-004>006-009-010-012-RIZ004-006-007-MAZ004-011-015-061900- SOUTHERN NEW ENGLAND IN CT CITY SKY/WX TMP DP RH WIND PRES REMARKS BRADLEY INTL PTSUNNY 83 61 47 VRB6 30.15F HARTFORD MOSUNNY 83 62 49 S6 30.16S DANBURY PTSUNNY 79 62 56 S12 30.18F WTRBRY/OXFORD PTSUNNY 79 64 61 S8 30.20F BRIDGEPORT PTSUNNY 77 69 76 E7 30.16F MERIDEN PTSUNNY 84 65 52 S8 30.16S NEW HAVEN PTSUNNY 81 69 67 SE6 30.17S CHESTER FAIR 81 66 61 SW7 30.20R GROTON PTSUNNY 76 68 76 S7 30.18S WILLIMANTIC PTSUNNY 82 62 50 SW9 30.17S IN RI CITY SKY/WX TMP DP RH WIND PRES REMARKS PROVIDENCE MOSUNNY 80 66 62 SE10 30.17R BLOCK ISLAND PTSUNNY 77 66 69 SW10 30.20S WESTERLY MOSUNNY 79 68 69 S8 30.19S IN MA CITY SKY/WX TMP DP RH WIND PRES REMARKS BOSTON PTSUNNY 74 63 68 E12 30.15S WORCESTER SUNNY 82 53 36 W8 30.20S WESTFIELD MOSUNNY 83 59 44 SW7 30.16S PROVINCETOWN SUNNY 84 25 11 NE7 30.17S NANTUCKET MOSUNNY 75 67 76 SW13 30.18F $$ ANZ330-335-338-340-345-350-353-355-061900- COASTAL MARINE OBSERVATIONS STATION/POSITION TIME SKY/WX TEMP WIND PRES VSBY WAVE AIR SEA DIR/SP/G HT/PER (UTC) (F) (DEG/KT/KT) (MB) (MI) (FT/S) NY HARB ENTRANCE 1750 72 72 130/ 6/ 8 1021.0 2/ 6 4S FIRE IS 1703 70 N/A 2/ 7 20S FIRE ISLAND 1750 72 72 130/ 4/ 6 1021.4 2/ 6 GREAT SOUTH BAY 1700 73 77 210/ 8/ 8 N/A 23SW MTP 1750 71 71 210/ 6/ 6 1021.9 2/ 7 HUDSON CANYON NOT AVBL KINGS POINT 1700 78 68 190/ 8/ 10 1020.8 CENTRAL LI SOUND NOT AVBL EASTERN LI SOUND 1700 69 65 160/ 4/ 6 N/A ROBBINS REEF 1700 75 170/ 12/ 13 1020.3 $$ >>>>>>>>>>>>>>>>>>>>>>>>>>>> KEY <<<<<<<<<<<<<<<<<<<<<<<<<<< > < > SKY/WX - SKY CONDITION/PRESENT WEATHER < > TMP - TEMPERATURE IN FAHRENHEIT < > DP - DEWPOINT IN FAHRENHEIT < > RH - RELATIVE HUMIDITY IN PERCENT < > WIND - DIRECTION AND SPEED IN MPH < > PRES - MEAN SEA LEVEL PRESSURE IN INCHES OF HG < > WCI - WIND CHILL INDEX < > VSB - VISIBILITY IN MILES < > HX - HEAT INDEX < > TC - TEMPERATURE IN CELSIUS < > VRB - VARIABLE WIND DIRECTION < > < >>>>>>>>>>>>>>>>>>>>>>>>>>>> KEY <<<<<<<<<<<<<<<<<<<<<<<<<<<

USA.gov is the U.S. government's official web portal to all federal, state and local government web resources and services.